Tracking 31027 objects as of 19-Jul-2025
HD Live streaming from Space Station
objects crossing your sky now

STARLINK-3634

Track STARLINK-3634 now!
10-day predictions
STARLINK-3634 is classified as:


NORAD ID: 51798
Int'l Code: 2022-017AG
Perigee: 546.1 km
Apogee: 547.7 km
Inclination: 53.2 °
Period: 95.4 minutes
Semi major axis: 6917 km
RCS: Unknown
Launch date: February 25, 2022
Source: United States (US)
Launch site: AIR FORCE WESTERN TEST RANGE (AFWTR)
Your satellite tracking list
FENGYUN 1C DEB
Track 1 satellite(s)




NASA's NSSDC Master Catalog

Two Line Element Set (TLE):
1 51798U 22017AG  25199.52016228  .00000771  00000-0  66498-4 0  9996
2 51798  53.2197 320.3488 0001132  92.6418 267.4703 15.08844002188619
Source of the keplerian elements: AFSPC